[[{"header":{"parameterUnit":"m.s-1","parameterCategory":1,"la1":30.2991,"la2":30.254,"lo1":-89.0895,"lo2":-89.0444,"dy":0.0017,"dx":0.0017,"nx":28,"ny":28,"refTime":"2025-04-14T03:00:00:Z","depth":0,"parameterNumber":2,"parameterNumberName":"U-component_of_WINDS"},"data":[0,0,0,0,0,0,0,0,0,0,0,0,0,0,0,0,0,0,0,0,0,0,0,0,0,0,0,0,0,0,0,0,0,0,0,0,0,0,0,0,0,0,0,0,0,0,0,0,0,0,0,0,0,0,0,0,0,0,0.8618,0.8619,0,0.8664,0.8664,0.8665,0.87,0.87,0.87,0.8701,0.8748,0.8749,0.875,0,0,0,0,0,0,0,0,0,0,0,0,0,0.8564,0.8564,0.8618,0.8619,0.8619,0.8664,0.8664,0.8665,0.87,0.87,0.8701,0.8701,0.8748,0.8749,0.875,0,0,0,0,0,0,0,0,0,0,0,0,0,0.8596,0.8565,0.8618,0.8642,0.8645,0.8663,0.8664,0.8665,0.87,0.87,0.8701,0.8701,0.8747,0.8749,0.875,0.8749,0,0,0.8754,0.8755,0,0,0,0,0,0,0,0,0.8594,0.8598,0.8638,0.864,0.8643,0.8677,0.8662,0.8693,0.87,0.8679,0.8701,0.8701,0.8724,0.8727,0.8735,0.8751,0.8753,0.8755,0.8755,0.8756,0.8756,0,0,0,0,0,0,0,0.8592,0.8596,0.8636,0.8638,0.8642,0.8651,0.8656,0.8668,0.8698,0.8681,0.8683,0.8688,0.8725,0.8733,0.8736,0.8754,0.8755,0.8756,0.8757,0.8757,0.8774,0.8773,0,0,0,0,0,0,0.8586,0.8594,0.8635,0.8638,0.8619,0.8652,0.8658,0.8665,0.8698,0.8703,0.8688,0.869,0.8731,0.8734,0.8738,0.8739,0.8756,0.8757,0.8758,0.8774,0.8774,0.8773,0,0,0,0,0,0,0.8584,0.8589,0.8633,0.8617,0.8623,0.8652,0.8661,0.8666,0.8674,0.8703,0.8709,0.869,0.8731,0.8736,0.8746,0.8742,0.8758,0.8759,0.8775,0.8774,0.8773,0.8742,0,0,0,0,0,0,0.8583,0.8588,0.8587,0.8616,0.8624,0.864,0.866,0.8667,0.8676,0.8679,0.8707,0.8712,0.8732,0.8744,0.8748,0.8744,0.876,0.8775,0.8774,0.8774,0.8743,0.874,0.8737,0,0,0,0,0,0.8581,0.8576,0.8587,0.8592,0.8623,0.8639,0.8643,0.8666,0.8676,0.8675,0.8695,0.8711,0.8742,0.8745,0.8749,0.8746,0.8776,0.8775,0.8774,0.8745,0.8741,0.8738,0,0,0,0,0,0,0.8546,0.858,0.8593,0.8598,0.8615,0.8645,0.8645,0.8661,0.8676,0.8678,0.8706,0.8713,0.872,0.8734,0.8737,0.8747,0.8761,0.8761,0.8737,0.8734,0.8731,0.8727,0.8762,0,0,0,0,0,0.8539,0.8548,0.8579,0.858,0.8588,0.8615,0.8623,0.8639,0.8659,0.8666,0.8686,0.8705,0.8719,0.8727,0.8742,0.8746,0.8753,0.8746,0.8743,0.8741,0.874,0.8745,0.8742,0.877,0.877,0.877,0,0,0.8524,0.8544,0.8549,0.8574,0.8589,0.8599,0.8621,0.8631,0.8639,0.8668,0.8679,0.8695,0.8717,0.8725,0.8729,0.8737,0.8734,0.874,0.8737,0.8738,0.8743,0.8741,0.8738,0.8769,0.877,0.877,0,0,0.8502,0.8518,0.8522,0.8537,0.8561,0.8579,0.858,0.8608,0.862,0.8632,0.8654,0.8665,0.8688,0.8704,0.8715,0.8702,0.8718,0.8706,0.869,0.8694,0.8692,0.869,0.8686,0.8684,0.8705,0.8705,0.8705,0,0.8481,0.8496,0.8522,0.853,0.8541,0.8569,0.8573,0.8587,0.8614,0.8622,0.863,0.8661,0.8678,0.869,0.8687,0.8695,0.8698,0.8702,0.869,0.8688,0.8687,0.8683,0.8682,0.8704,0.8704,0.8704,0.8704,0,0.847,0.848,0.8481,0.8506,0.8517,0.8524,0.8551,0.8559,0.8575,0.8593,0.8606,0.8628,0.8648,0.8653,0.8668,0.8668,0.8672,0.8685,0.8699,0.8682,0.8679,0.8678,0.8701,0.8702,0.8702,0.8703,0,0,0.8425,0.8466,0.8466,0.8478,0.8507,0.8517,0.8525,0.8545,0.8552,0.8571,0.8579,0.8599,0.8612,0.8625,0.8643,0.8646,0.8636,0.8659,0.866,0.8654,0.8638,0.8627,0.8625,0.8647,0.8647,0.8647,0.8636,0,0.8407,0.8423,0.8447,0.8456,0.8467,0.8495,0.8503,0.8522,0.8539,0.8552,0.8572,0.8586,0.8602,0.861,0.8615,0.8636,0.8633,0.8637,0.8656,0.8656,0.8648,0.8623,0.8612,0.86,0.8635,0.8635,0.8634,0,0.8388,0.8406,0.8415,0.8445,0.8451,0.8457,0.8478,0.849,0.8513,0.8526,0.8541,0.8561,0.8573,0.8586,0.8603,0.8606,0.8616,0.8627,0.8628,0.8629,0.8643,0.8624,0.8596,0.8594,0.8633,0.8633,0.8633,0,0.8355,0.8381,0.839,0.84,0.8435,0.8439,0.8454,0.8478,0.8489,0.8508,0.8516,0.8536,0.8546,0.8562,0.8587,0.8595,0.8602,0.8618,0.8614,0.8613,0.8613,0.8612,0.8586,0.862,0.862,0.862,0.862,0,0.8332,0.8337,0.8375,0.8381,0.8388,0.8417,0.8423,0.844,0.8462,0.8472,0.8498,0.8508,0.8541,0.8555,0.8575,0.8587,0.8592,0.8603,0.8608,0.86,0.8598,0.8605,0.8607,0.8619,0.862,0.862,0.862,0,0.8294,0.8321,0.8333,0.8366,0.8374,0.8378,0.8407,0.8414,0.8434,0.8447,0.8452,0.8484,0.8501,0.8529,0.8554,0.8568,0.8576,0.8585,0.8568,0.8571,0.8565,0.8565,0.8542,0.8541,0.8576,0.8576,0.8575,0,0.8278,0.8282,0.8316,0.8325,0.8339,0.8353,0.8364,0.8394,0.8405,0.8433,0.8438,0.8457,0.8475,0.8502,0.8528,0.8548,0.8558,0.8548,0.8561,0.8553,0.8557,0.8556,0.8557,0.8545,0.8544,0.8544,0.8543,0,0.8245,0.8258,0.8274,0.8295,0.8308,0.8326,0.8345,0.8351,0.8385,0.8396,0.8415,0.8428,0.8456,0.8475,0.85,0.8516,0.8536,0.854,0.854,0.8531,0.8521,0.8526,0.8559,0.8539,0.854,0.854,0.854,0.854,0.8217,0.8223,0.8248,0.8265,0.8283,0.8301,0.8309,0.8331,0.8347,0.8371,0.8389,0.8406,0.8432,0.8467,0.8483,0.8498,0.8506,0.8506,0.8506,0.8505,0.8502,0.8519,0.8502,0.8503,0.8503,0.8503,0.8503,0,0.8186,0.8204,0.822,0.8246,0.826,0.8278,0.83,0.8311,0.8326,0.8348,0.8365,0.8387,0.8407,0.8436,0.8458,0.8465,0.8474,0.8469,0.8469,0.8473,0.8494,0.8491,0.8461,0.8461,0.8461,0.8461,0.8461,0.8461,0.8171,0.8182,0.8199,0.8219,0.8238,0.8255,0.8267,0.8284,0.8302,0.8325,0.8342,0.8361,0.8386,0.8411,0.843,0.8438,0.8445,0.8438,0.8448,0.8467,0.8471,0.8474,0.8472,0.8439,0.8439,0.8426,0.8426,0.8426]},{"header":{"parameterUnit":"m.s-1","parameterCategory":1,"la1":30.2991,"la2":30.254,"lo1":-89.0895,"lo2":-89.0444,"dy":0.0017,"dx":0.0017,"nx":28,"ny":28,"refTime":"2025-04-14T03:00:00:Z","depth":0,"parameterNumber":3,"parameterNumberName":"V-component_of_WINDS"},"data":[0,0,0,0,0,0,0,0,0,0,0,0,0,0,0,0,0,0,0,0,0,0,0,0,0,0,0,0,0,0,0,0,0,0,0,0,0,0,0,0,0,0,0,0,0,0,0,0,0,0,0,0,0,0,0,0,0,0,-5.0042,-5.0043,0,-5.0078,-5.0079,-5.0079,-5.0106,-5.0106,-5.0106,-5.0106,-5.0138,-5.0138,-5.0139,0,0,0,0,0,0,0,0,0,0,0,0,0,-4.9993,-4.9994,-5.0042,-5.0043,-5.0043,-5.0078,-5.0079,-5.0079,-5.0106,-5.0106,-5.0106,-5.0106,-5.0137,-5.0138,-5.0139,0,0,0,0,0,0,0,0,0,0,0,0,0,-5.002,-4.9994,-5.0042,-5.0061,-5.0063,-5.0078,-5.0079,-5.0079,-5.0105,-5.0106,-5.0106,-5.0107,-5.0137,-5.0138,-5.0139,-5.0137,0,0,-5.0142,-5.0142,0,0,0,0,0,0,0,0,-5.0019,-5.0022,-5.0057,-5.0059,-5.0062,-5.0088,-5.0073,-5.0099,-5.0105,-5.0089,-5.0106,-5.0107,-5.012,-5.0123,-5.0128,-5.0139,-5.014,-5.0142,-5.0142,-5.0143,-5.0143,0,0,0,0,0,0,0,-5.0017,-5.0021,-5.0056,-5.0058,-5.0061,-5.0066,-5.007,-5.0078,-5.0102,-5.009,-5.0093,-5.0097,-5.0122,-5.0128,-5.0129,-5.014,-5.0142,-5.0143,-5.0143,-5.0143,-5.0154,-5.0153,0,0,0,0,0,0,-5.0013,-5.0019,-5.0055,-5.0057,-5.0041,-5.0067,-5.0072,-5.0079,-5.0102,-5.0106,-5.0096,-5.0098,-5.0126,-5.0128,-5.0131,-5.0132,-5.0143,-5.0144,-5.0144,-5.0154,-5.0154,-5.0153,0,0,0,0,0,0,-5.0011,-5.0016,-5.0054,-5.0039,-5.0044,-5.0067,-5.0075,-5.008,-5.0086,-5.0107,-5.0111,-5.0098,-5.0126,-5.0129,-5.0136,-5.0133,-5.0144,-5.0145,-5.0154,-5.0154,-5.0153,-5.0132,0,0,0,0,0,0,-5.001,-5.0015,-5.0015,-5.0039,-5.0045,-5.006,-5.0075,-5.008,-5.0088,-5.009,-5.0109,-5.0113,-5.0127,-5.0135,-5.0137,-5.0134,-5.0145,-5.0155,-5.0154,-5.0154,-5.0133,-5.0131,-5.0129,0,0,0,0,0,-5.0008,-5.0006,-5.0015,-5.0019,-5.0046,-5.0059,-5.0063,-5.008,-5.0087,-5.0087,-5.0101,-5.0112,-5.0133,-5.0135,-5.0138,-5.0135,-5.0155,-5.0154,-5.0154,-5.0134,-5.0132,-5.013,0,0,0,0,0,0,-4.9978,-5.0009,-5.0019,-5.0025,-5.004,-5.0064,-5.0064,-5.0077,-5.0088,-5.0089,-5.0109,-5.0113,-5.0118,-5.0128,-5.013,-5.0136,-5.0146,-5.0145,-5.013,-5.0128,-5.0126,-5.0123,-5.0146,0,0,0,0,0,-4.9972,-4.9982,-5.0009,-5.0011,-5.0018,-5.004,-5.0047,-5.006,-5.0075,-5.008,-5.0095,-5.0108,-5.0118,-5.0123,-5.0133,-5.0136,-5.0141,-5.0135,-5.0133,-5.0132,-5.0131,-5.0135,-5.0133,-5.0151,-5.0151,-5.0151,0,0,-4.996,-4.9978,-4.9983,-5.0005,-5.0018,-5.0028,-5.0045,-5.0053,-5.006,-5.0081,-5.0089,-5.0101,-5.0116,-5.0122,-5.0125,-5.013,-5.0128,-5.0131,-5.0129,-5.013,-5.0134,-5.0132,-5.013,-5.0151,-5.0151,-5.0151,0,0,-4.9942,-4.9957,-4.9962,-4.9975,-4.9996,-5.0012,-5.0013,-5.0036,-5.0045,-5.0055,-5.0071,-5.0079,-5.0095,-5.0107,-5.0115,-5.0106,-5.0117,-5.0109,-5.0097,-5.0101,-5.0099,-5.0098,-5.0096,-5.0094,-5.0108,-5.0108,-5.0108,0,-4.9923,-4.9939,-4.9962,-4.9971,-4.998,-5.0003,-5.0008,-5.002,-5.0042,-5.0048,-5.0054,-5.0077,-5.0089,-5.0098,-5.0096,-5.0102,-5.0104,-5.0106,-5.0098,-5.0097,-5.0096,-5.0094,-5.0093,-5.0107,-5.0107,-5.0107,-5.0107,0,-4.9915,-4.9927,-4.9928,-4.9952,-4.9962,-4.9968,-4.9992,-4.9999,-5.0012,-5.0027,-5.0037,-5.0053,-5.0068,-5.0072,-5.0083,-5.0083,-5.0086,-5.0095,-5.0104,-5.0093,-5.0091,-5.0091,-5.0105,-5.0106,-5.0106,-5.0106,0,0,-4.9875,-4.9916,-4.9916,-4.9928,-4.9955,-4.9963,-4.9972,-4.9989,-4.9996,-5.0011,-5.0018,-5.0033,-5.0043,-5.0052,-5.0065,-5.0068,-5.0062,-5.0077,-5.0078,-5.0074,-5.0064,-5.0057,-5.0055,-5.007,-5.007,-5.007,-5.0063,0,-4.9861,-4.9879,-4.9902,-4.9912,-4.9923,-4.9948,-4.9955,-4.9972,-4.9987,-4.9998,-5.0013,-5.0024,-5.0036,-5.0042,-5.0046,-5.0062,-5.006,-5.0063,-5.0076,-5.0076,-5.0071,-5.0054,-5.0046,-5.0038,-5.0062,-5.0062,-5.0062,0,-4.9846,-4.9864,-4.9876,-4.9905,-4.9911,-4.9917,-4.9937,-4.9947,-4.9967,-4.9978,-4.999,-5.0006,-5.0016,-5.0026,-5.0039,-5.0041,-5.0048,-5.0057,-5.0057,-5.0058,-5.0068,-5.0054,-5.0036,-5.0035,-5.0061,-5.0061,-5.0061,0,-4.9816,-4.9843,-4.9855,-4.9865,-4.9898,-4.9903,-4.9917,-4.9938,-4.9948,-4.9964,-4.9971,-4.9988,-4.9996,-5.0008,-5.0028,-5.0033,-5.004,-5.0051,-5.0049,-5.0048,-5.0047,-5.0047,-5.003,-5.0053,-5.0053,-5.0053,-5.0053,0,-4.9797,-4.9803,-4.9842,-4.9849,-4.9857,-4.9884,-4.9891,-4.9907,-4.9927,-4.9936,-4.9958,-4.9966,-4.9993,-5.0004,-5.0019,-5.0029,-5.0033,-5.0041,-5.0045,-5.0039,-5.0038,-5.0043,-5.0043,-5.0053,-5.0053,-5.0053,-5.0053,0,-4.9763,-4.979,-4.9804,-4.9837,-4.9846,-4.9851,-4.9878,-4.9886,-4.9904,-4.9916,-4.9921,-4.9948,-4.9963,-4.9985,-5.0005,-5.0016,-5.0024,-5.003,-5.0017,-5.0019,-5.0016,-5.0016,-5.0,-5.0,-5.0024,-5.0024,-5.0024,0,-4.9749,-4.9755,-4.9791,-4.9801,-4.9815,-4.983,-4.9842,-4.9869,-4.988,-4.9906,-4.991,-4.9928,-4.9944,-4.9967,-4.9987,-5.0004,-5.0011,-5.0004,-5.0013,-5.0007,-5.0011,-5.001,-5.0011,-5.0001,-5.0001,-5.0001,-5.0,0,-4.9721,-4.9735,-4.9752,-4.9775,-4.979,-4.9808,-4.9827,-4.9834,-4.9865,-4.9876,-4.9894,-4.9907,-4.993,-4.9947,-4.9968,-4.9981,-4.9996,-4.9998,-4.9999,-4.9992,-4.9984,-4.9989,-5.0011,-4.9998,-4.9998,-4.9998,-4.9998,-4.9998,-4.9696,-4.9704,-4.9731,-4.9751,-4.9769,-4.9788,-4.9798,-4.9819,-4.9835,-4.9859,-4.9874,-4.9891,-4.9913,-4.9943,-4.9956,-4.9969,-4.9975,-4.9975,-4.9975,-4.9975,-4.9973,-4.9984,-4.9973,-4.9973,-4.9973,-4.9973,-4.9973,0,-4.9669,-4.9689,-4.9707,-4.9736,-4.9751,-4.9769,-4.9792,-4.9803,-4.9819,-4.984,-4.9857,-4.9878,-4.9896,-4.992,-4.994,-4.9946,-4.9953,-4.995,-4.9949,-4.9952,-4.9966,-4.9964,-4.9944,-4.9944,-4.9944,-4.9944,-4.9944,-4.9944,-4.9656,-4.9671,-4.9689,-4.9714,-4.9734,-4.9753,-4.9765,-4.9783,-4.9801,-4.9825,-4.9841,-4.9858,-4.9881,-4.9903,-4.992,-4.9927,-4.9933,-4.9927,-4.9936,-4.9948,-4.9951,-4.9953,-4.9951,-4.9929,-4.9929,-4.9921,-4.9921,-4.992]}]]